Weather History for Frenchville, ME

Change the Weather History Date:

Wednesday, March 6, 2013

  Actual Average Record
Temperature  
Mean Temperature 30 °F 20 °F  
Max Temperature 33 °F 28 °F 39 °F (2011)
Min Temperature 26 °F 11 °F -9 °F (2007)
Degree Days  
Heating Degree Days 35    
Month to date heating degree days 198  
Since 1 July heating degree days 6688  
Cooling Degree Days 0    
Month to date cooling degree days 0  
Year to date cooling degree days 0  
Moisture  
Dew Point 20 °F    
Average Humidity 68    
Maximum Humidity 78    
Minimum Humidity 56    
Precipitation  
Precipitation T in 0.04 in 0.66 in (2011)
Month to date precipitation 0.13 0.20  
Year to date precipitation 2.35 2.77  
Snow  
Snow 0.00 in - - ()
Since 1 July snowfall 0.0  
Snow Depth 0.00 in    
Sea Level Pressure  
Sea Level Pressure 30.37 in    
Wind  
Wind Speed 10 mph (ENE)    
Max Wind Speed 18 mph    
Max Gust Speed 25 mph    
Visibility 10 miles    
Events      
T = Trace of Precipitation, MM = Missing Value Source: NWS Daily Summary

Daily Weather History Graph

Daily Weather History Graph

Search for Another Location

Airport:

Trip Planner

Search our weather history database for the weather conditions in past years. The results will help you decide how hot, cold, wet, or windy it might be!

Date:

Astronomy

Mar. 06, 2013 Rise Set
Actual Time 6:03 AM EST 5:26 PM EST
Civil Twilight 5:32 AM EST 5:56 PM EST
Nautical Twilight 4:57 AM EST 6:32 PM EST
Astronomical Twilight 4:21 AM EST 7:08 PM EST
Moon 2:26 AM EST (3/6) 11:47 AM EST (3/6)
Length of Visible Light 12h 23m
Length of Day
11h 22m
Waning Crescent, 30% of the Moon is Illuminated
Mar 6
Waning Crescent
Mar 11
New
Mar 19
First Quarter
Mar 27
Full
Apr 3
Last Quarter

Hourly Weather History & Observations

Time (EST) Temp. Windchill Dew Point Humidity Pressure Visibility Wind Dir Wind Speed Gust Speed Precip Events Conditions
12:53 AM 30.0 °F 19.5 °F 23.0 °F 75% 30.29 in 10.0 mi ENE 13.8 mph 21.9 mph N/A   Overcast
1:53 AM 28.9 °F 19.8 °F 23.0 °F 78% 30.30 in 10.0 mi ENE 10.4 mph - N/A   Overcast
2:53 AM 28.9 °F 18.6 °F 23.0 °F 78% 30.31 in 10.0 mi NE 12.7 mph - N/A   Overcast
3:53 AM 28.9 °F 21.1 °F 21.9 °F 75% 30.32 in 10.0 mi NE 8.1 mph - N/A   Overcast
4:53 AM 28.9 °F 19.2 °F 21.9 °F 75% 30.34 in 10.0 mi ENE 11.5 mph - N/A   Overcast
5:53 AM 28.0 °F 20.8 °F 21.9 °F 78% 30.35 in 10.0 mi ENE 6.9 mph - N/A   Overcast
6:53 AM 28.9 °F 19.8 °F 23.0 °F 78% 30.37 in 10.0 mi ENE 10.4 mph - N/A   Overcast
7:53 AM 28.9 °F 20.4 °F 21.9 °F 75% 30.38 in 10.0 mi East 9.2 mph - N/A   Overcast
8:53 AM 30.9 °F 24.3 °F 21.0 °F 67% 30.38 in 10.0 mi NE 6.9 mph 16.1 mph N/A   Overcast
9:53 AM 33.1 °F 23.4 °F 19.0 °F 56% 30.37 in 10.0 mi East 13.8 mph 21.9 mph N/A   Mostly Cloudy
10:53 AM 32.0 °F 25.6 °F 21.0 °F 64% 30.38 in 10.0 mi ENE 6.9 mph 17.3 mph N/A   Overcast
11:53 AM 32.0 °F 23.6 °F 19.9 °F 61% 30.37 in 9.0 mi ENE 10.4 mph - 0.00 in   Overcast
12:53 PM 33.1 °F 26.1 °F 19.9 °F 59% 30.36 in 10.0 mi East 8.1 mph - N/A   Overcast
1:53 PM 33.1 °F 24.9 °F 19.9 °F 59% 30.37 in 10.0 mi ENE 10.4 mph 19.6 mph N/A   Overcast
2:53 PM 33.1 °F 25.5 °F 19.9 °F 59% 30.37 in 10.0 mi ENE 9.2 mph - N/A   Overcast
3:53 PM 32.0 °F 23.6 °F 18.0 °F 56% 30.38 in 10.0 mi ENE 10.4 mph 19.6 mph N/A   Overcast
4:53 PM 30.0 °F 20.5 °F 19.0 °F 64% 30.39 in 10.0 mi ENE 11.5 mph - N/A   Overcast
5:48 PM 28.4 °F 18.5 °F 19.4 °F 69% 30.35 in 10.0 mi ENE 11.5 mph - N/A   Overcast
5:53 PM 28.9 °F 20.4 °F 19.9 °F 69% 30.39 in 10.0 mi ENE 9.2 mph - N/A   Overcast
6:53 PM 28.9 °F 20.4 °F 19.0 °F 67% 30.39 in 10.0 mi ENE 9.2 mph 18.4 mph N/A   Overcast
7:53 PM 28.0 °F 19.3 °F 18.0 °F 66% 30.40 in 10.0 mi East 9.2 mph 17.3 mph N/A   Overcast
8:53 PM 27.0 °F 17.3 °F 18.0 °F 69% 30.40 in 10.0 mi East 10.4 mph 17.3 mph N/A   Overcast
9:53 PM 27.0 °F 17.3 °F 17.1 °F 66% 30.41 in 10.0 mi ESE 10.4 mph - N/A   Overcast
10:53 PM 27.0 °F 18.0 °F 16.0 °F 63% 30.40 in 10.0 mi East 9.2 mph - N/A   Overcast
11:53 PM 26.1 °F 17.6 °F 17.1 °F 69% 30.40 in 10.0 mi East 8.1 mph - N/A   Overcast